[[{"header":{"parameterUnit":"m.s-1","parameterCategory":1,"la1":30.2991,"la2":30.254,"lo1":-89.0895,"lo2":-89.0444,"dy":0.0017,"dx":0.0017,"nx":28,"ny":28,"refTime":"2024-05-24T03:00:00:Z","depth":0,"parameterNumber":2,"parameterNumberName":"U-component_of_WINDS"},"data":[0,0,0,0,0,0,0,0,0,0,0,0,0,0,0,0,0,0,0,0,0,0,0,0,0,0,0,0,0,0,0,0,0,0,0,0,0,0,0,0,0,0,0,0,0,0,0,0,0,0,0,0,0,0,0,0,0,0,-1.6202,-1.6203,0,-1.6235,-1.6235,-1.6236,-1.6241,-1.624,-1.624,-1.624,-1.6273,-1.6274,-1.6275,0,0,0,0,0,0,0,0,0,0,0,0,0,-1.6144,-1.6145,-1.6202,-1.6203,-1.6203,-1.6235,-1.6235,-1.6236,-1.6241,-1.624,-1.624,-1.6239,-1.6273,-1.6274,-1.6276,0,0,0,0,0,0,0,0,0,0,0,0,0,-1.6172,-1.6145,-1.6202,-1.6209,-1.621,-1.6235,-1.6235,-1.6236,-1.6241,-1.624,-1.624,-1.6239,-1.6272,-1.6274,-1.6276,-1.6296,0,0,-1.6281,-1.6282,0,0,0,0,0,0,0,0,-1.6171,-1.6174,-1.6208,-1.6209,-1.621,-1.6233,-1.6227,-1.6256,-1.6241,-1.6229,-1.624,-1.6239,-1.626,-1.6263,-1.627,-1.6297,-1.6299,-1.6281,-1.6282,-1.6283,-1.6284,0,0,0,0,0,0,0,-1.6169,-1.6173,-1.6215,-1.6208,-1.621,-1.6211,-1.6214,-1.6233,-1.6247,-1.623,-1.623,-1.6234,-1.6261,-1.6268,-1.6271,-1.6299,-1.6281,-1.6283,-1.6284,-1.6285,-1.6345,-1.6345,0,0,0,0,0,0,-1.6165,-1.6171,-1.6214,-1.6216,-1.6189,-1.6212,-1.6216,-1.6226,-1.6247,-1.6249,-1.6235,-1.6234,-1.6266,-1.6269,-1.6272,-1.6297,-1.6283,-1.6285,-1.6286,-1.6344,-1.6345,-1.6345,0,0,0,0,0,0,-1.6164,-1.6169,-1.6213,-1.6194,-1.6199,-1.6214,-1.6225,-1.6227,-1.6235,-1.625,-1.6253,-1.624,-1.6265,-1.627,-1.629,-1.6298,-1.6285,-1.6287,-1.6344,-1.6344,-1.6345,-1.6347,0,0,0,0,0,0,-1.6162,-1.6169,-1.6176,-1.6194,-1.62,-1.623,-1.6225,-1.6228,-1.6238,-1.6238,-1.6256,-1.6258,-1.6265,-1.6287,-1.6292,-1.63,-1.6288,-1.6343,-1.6344,-1.6345,-1.6346,-1.6348,-1.6349,0,0,0,0,0,-1.616,-1.6175,-1.6176,-1.6182,-1.621,-1.623,-1.6234,-1.6242,-1.6238,-1.6246,-1.6256,-1.6258,-1.6297,-1.6289,-1.6294,-1.6304,-1.6342,-1.6344,-1.6345,-1.6346,-1.6347,-1.6349,0,0,0,0,0,0,-1.6158,-1.6178,-1.6179,-1.62,-1.6214,-1.6231,-1.6241,-1.6244,-1.6258,-1.6258,-1.6267,-1.6271,-1.6291,-1.6299,-1.6291,-1.6324,-1.6319,-1.6321,-1.6318,-1.632,-1.6321,-1.6319,-1.629,0,0,0,0,0,-1.616,-1.6174,-1.6191,-1.6208,-1.6215,-1.6227,-1.6236,-1.6241,-1.6255,-1.6261,-1.6272,-1.6286,-1.6301,-1.6311,-1.6326,-1.6347,-1.6352,-1.6356,-1.6358,-1.6359,-1.6361,-1.6373,-1.6376,-1.6349,-1.6349,-1.6349,0,0,-1.6164,-1.6177,-1.6185,-1.6208,-1.6219,-1.6234,-1.6231,-1.6247,-1.6259,-1.6263,-1.6283,-1.6292,-1.6308,-1.6329,-1.6339,-1.6336,-1.6369,-1.6361,-1.6361,-1.6363,-1.6375,-1.6377,-1.638,-1.635,-1.635,-1.635,0,0,-1.6179,-1.619,-1.6206,-1.6217,-1.6234,-1.6242,-1.6245,-1.6263,-1.6269,-1.6289,-1.6292,-1.6306,-1.6332,-1.6344,-1.6353,-1.6373,-1.6375,-1.6378,-1.6385,-1.6397,-1.6399,-1.6401,-1.6409,-1.6411,-1.638,-1.638,-1.638,0,-1.6182,-1.6205,-1.6214,-1.623,-1.624,-1.6244,-1.6261,-1.6271,-1.6291,-1.6298,-1.6296,-1.6329,-1.634,-1.6364,-1.6369,-1.6376,-1.6381,-1.6376,-1.6398,-1.64,-1.6402,-1.6409,-1.6412,-1.638,-1.638,-1.638,-1.638,0,-1.6209,-1.6224,-1.6235,-1.6255,-1.6266,-1.6282,-1.6293,-1.6304,-1.6308,-1.6316,-1.6337,-1.635,-1.6368,-1.6374,-1.6378,-1.6399,-1.6397,-1.6396,-1.6391,-1.6405,-1.6412,-1.6415,-1.638,-1.638,-1.638,-1.638,0,0,-1.6223,-1.6248,-1.6252,-1.6261,-1.628,-1.6292,-1.6309,-1.6326,-1.6335,-1.6349,-1.6364,-1.6386,-1.6385,-1.6396,-1.6401,-1.6412,-1.6427,-1.641,-1.641,-1.6413,-1.6451,-1.6452,-1.6455,-1.6429,-1.6429,-1.643,-1.645,0,-1.6241,-1.627,-1.6279,-1.6303,-1.6318,-1.6323,-1.6338,-1.6351,-1.6359,-1.6373,-1.6382,-1.6398,-1.6396,-1.6402,-1.6413,-1.6423,-1.6435,-1.6422,-1.6442,-1.6443,-1.6438,-1.6459,-1.646,-1.6478,-1.6453,-1.6453,-1.6454,0,-1.6266,-1.6281,-1.6307,-1.6324,-1.6331,-1.6344,-1.6361,-1.6374,-1.6389,-1.6395,-1.6407,-1.6411,-1.6429,-1.6423,-1.6447,-1.6438,-1.6447,-1.6453,-1.6454,-1.6456,-1.6449,-1.6462,-1.6484,-1.6487,-1.6458,-1.6458,-1.6457,0,-1.6274,-1.6301,-1.632,-1.6328,-1.6349,-1.6358,-1.6367,-1.6381,-1.6392,-1.6407,-1.6413,-1.643,-1.6439,-1.6452,-1.6461,-1.6456,-1.6485,-1.648,-1.649,-1.649,-1.6496,-1.6496,-1.652,-1.6502,-1.6502,-1.6502,-1.6501,0,-1.6294,-1.631,-1.6324,-1.6336,-1.6355,-1.6364,-1.6382,-1.6391,-1.6404,-1.6418,-1.6423,-1.6436,-1.6447,-1.6462,-1.6469,-1.6488,-1.6492,-1.6497,-1.6499,-1.6497,-1.6496,-1.6503,-1.6502,-1.6502,-1.6502,-1.6502,-1.6502,0,-1.6306,-1.6317,-1.6338,-1.6356,-1.6361,-1.6374,-1.6389,-1.6401,-1.6409,-1.6427,-1.6432,-1.6445,-1.6463,-1.6473,-1.6495,-1.65,-1.6521,-1.6522,-1.6516,-1.6517,-1.6527,-1.6526,-1.6557,-1.6562,-1.6539,-1.654,-1.654,0,-1.6318,-1.6331,-1.635,-1.636,-1.6369,-1.6384,-1.6395,-1.6405,-1.6415,-1.6434,-1.6444,-1.6461,-1.6476,-1.6504,-1.6515,-1.6532,-1.6534,-1.6544,-1.6537,-1.6534,-1.6535,-1.6534,-1.6535,-1.6545,-1.6545,-1.6545,-1.6546,0,-1.6338,-1.6343,-1.6358,-1.6375,-1.6387,-1.6401,-1.6415,-1.6423,-1.6435,-1.6447,-1.6465,-1.6476,-1.6499,-1.6516,-1.6534,-1.6544,-1.6547,-1.6548,-1.6551,-1.6549,-1.6545,-1.6548,-1.652,-1.6547,-1.6547,-1.6547,-1.6547,-1.6547,-1.6351,-1.6362,-1.6378,-1.6394,-1.6406,-1.6419,-1.6431,-1.6441,-1.6456,-1.6475,-1.648,-1.6499,-1.6514,-1.6539,-1.6549,-1.6564,-1.6562,-1.6567,-1.6568,-1.6569,-1.6569,-1.6543,-1.6567,-1.6567,-1.6567,-1.6567,-1.6567,0,-1.6371,-1.6381,-1.6397,-1.6416,-1.6429,-1.6431,-1.6446,-1.6457,-1.6474,-1.6488,-1.6502,-1.6523,-1.654,-1.6554,-1.6571,-1.6581,-1.6583,-1.6585,-1.6585,-1.6587,-1.657,-1.6565,-1.6583,-1.6583,-1.6583,-1.6583,-1.6583,-1.6583,-1.6383,-1.6403,-1.641,-1.6435,-1.6445,-1.6464,-1.6472,-1.6484,-1.6496,-1.6518,-1.6533,-1.6541,-1.6555,-1.6574,-1.659,-1.6593,-1.66,-1.6602,-1.6606,-1.659,-1.6588,-1.6586,-1.6582,-1.6603,-1.6603,-1.6622,-1.6622,-1.6622]},{"header":{"parameterUnit":"m.s-1","parameterCategory":1,"la1":30.2991,"la2":30.254,"lo1":-89.0895,"lo2":-89.0444,"dy":0.0017,"dx":0.0017,"nx":28,"ny":28,"refTime":"2024-05-24T03:00:00:Z","depth":0,"parameterNumber":3,"parameterNumberName":"V-component_of_WINDS"},"data":[0,0,0,0,0,0,0,0,0,0,0,0,0,0,0,0,0,0,0,0,0,0,0,0,0,0,0,0,0,0,0,0,0,0,0,0,0,0,0,0,0,0,0,0,0,0,0,0,0,0,0,0,0,0,0,0,0,0,3.0512,3.0511,0,3.0452,3.0451,3.045,3.0362,3.036,3.0358,3.0357,3.0296,3.0296,3.0296,0,0,0,0,0,0,0,0,0,0,0,0,0,3.0552,3.0551,3.0512,3.0511,3.0511,3.0452,3.0451,3.045,3.0362,3.036,3.0358,3.0356,3.0296,3.0296,3.0296,0,0,0,0,0,0,0,0,0,0,0,0,0,3.0517,3.0551,3.0512,3.046,3.0454,3.0452,3.0451,3.045,3.0362,3.036,3.0358,3.0355,3.0297,3.0296,3.0296,3.0341,0,0,3.0295,3.0295,0,0,0,0,0,0,0,0,3.0519,3.0516,3.0468,3.0463,3.0457,3.0412,3.0442,3.0413,3.0363,3.0397,3.0357,3.0354,3.0337,3.0333,3.0327,3.0338,3.0335,3.0295,3.0295,3.0295,3.0295,0,0,0,0,0,0,0,3.0522,3.0518,3.0488,3.0467,3.0461,3.0439,3.0431,3.0436,3.0381,3.0394,3.0387,3.0381,3.0333,3.0327,3.0325,3.0335,3.0295,3.0295,3.0295,3.0295,3.0377,3.0379,0,0,0,0,0,0,3.0532,3.0521,3.049,3.0486,3.0483,3.044,3.0432,3.0429,3.038,3.0371,3.0383,3.0378,3.0329,3.0325,3.0322,3.0369,3.0295,3.0295,3.0295,3.0374,3.0377,3.038,0,0,0,0,0,0,3.0533,3.053,3.0493,3.0502,3.0495,3.0442,3.0439,3.0429,3.0422,3.0372,3.0362,3.0387,3.0327,3.0323,3.0336,3.0366,3.0295,3.0294,3.0372,3.0375,3.0378,3.0466,0,0,0,0,0,0,3.0535,3.0531,3.0548,3.0503,3.0495,3.0508,3.0441,3.0429,3.0422,3.0414,3.0373,3.0365,3.0325,3.0337,3.0336,3.0364,3.0294,3.0369,3.0373,3.0377,3.046,3.0472,3.0482,0,0,0,0,0,3.0536,3.0575,3.0549,3.0546,3.0515,3.051,3.0505,3.0458,3.0425,3.0441,3.0408,3.0366,3.0363,3.0339,3.0337,3.0366,3.0367,3.0372,3.0377,3.0455,3.0469,3.0482,0,0,0,0,0,0,3.0626,3.0569,3.0539,3.0564,3.0542,3.0495,3.0513,3.0475,3.0463,3.0456,3.0398,3.039,3.041,3.039,3.0364,3.0406,3.0358,3.0363,3.0418,3.0432,3.0442,3.0446,3.0294,0,0,0,0,0,3.0649,3.0649,3.0599,3.0627,3.0617,3.0568,3.0564,3.0529,3.0504,3.0495,3.0463,3.0441,3.0435,3.0432,3.0424,3.0457,3.0446,3.0476,3.0487,3.0496,3.0501,3.0514,3.0526,3.0397,3.0397,3.0397,0,0,3.0696,3.0664,3.0669,3.0644,3.0623,3.0624,3.056,3.0565,3.0566,3.0496,3.0506,3.0482,3.0454,3.0476,3.0485,3.046,3.0534,3.0503,3.051,3.051,3.0521,3.0533,3.0544,3.0401,3.04,3.0399,0,0,3.0782,3.0759,3.0778,3.0758,3.0727,3.0693,3.0698,3.0656,3.0637,3.0646,3.0593,3.0593,3.0584,3.0565,3.0554,3.0632,3.0591,3.0631,3.0688,3.0702,3.0712,3.072,3.0746,3.0756,3.0636,3.0636,3.0636,0,3.0844,3.0844,3.0793,3.08,3.079,3.0727,3.0745,3.0728,3.0697,3.0691,3.0663,3.0649,3.0626,3.0642,3.0661,3.0655,3.0657,3.0635,3.0714,3.0723,3.073,3.0754,3.0764,3.0641,3.064,3.064,3.0639,0,3.0921,3.0922,3.0942,3.0911,3.0903,3.0917,3.0867,3.0866,3.0832,3.0801,3.081,3.0779,3.0763,3.0764,3.0732,3.0776,3.0761,3.0725,3.0676,3.0748,3.0769,3.0778,3.0648,3.0646,3.0645,3.0644,0,0,3.1062,3.1002,3.101,3.0994,3.0954,3.0954,3.0964,3.0947,3.0946,3.0926,3.0932,3.0925,3.0891,3.0879,3.0844,3.0856,3.0916,3.0818,3.0816,3.0836,3.096,3.0986,3.0998,3.089,3.0892,3.0893,3.0962,0,3.1139,3.1152,3.1105,3.113,3.1129,3.1068,3.1076,3.1053,3.1024,3.1019,3.0987,3.0983,3.0939,3.0931,3.094,3.0907,3.094,3.0902,3.0894,3.0894,3.0901,3.1009,3.1037,3.1104,3.097,3.0971,3.0972,0,3.123,3.1213,3.1238,3.1195,3.1193,3.1201,3.1181,3.1177,3.1149,3.1127,3.1113,3.1071,3.1077,3.1031,3.1038,3.1012,3.1006,3.0989,3.0991,3.0987,3.0937,3.1007,3.1124,3.1134,3.0985,3.0984,3.0983,0,3.1328,3.1312,3.1324,3.1313,3.1263,3.127,3.125,3.1219,3.1211,3.1194,3.1188,3.1172,3.1163,3.1151,3.1106,3.1077,3.1117,3.1068,3.1098,3.1099,3.1108,3.1108,3.1224,3.1107,3.1107,3.1107,3.1107,0,3.1417,3.1434,3.1366,3.1374,3.139,3.1337,3.1355,3.1329,3.1301,3.1302,3.1249,3.125,3.1192,3.1187,3.1152,3.1161,3.1158,3.1139,3.113,3.1143,3.1145,3.1138,3.1131,3.111,3.1109,3.1108,3.1108,0,3.1529,3.1485,3.1493,3.1445,3.1434,3.1448,3.1407,3.1411,3.1379,3.138,3.1377,3.1327,3.1318,3.1272,3.1253,3.1229,3.125,3.1232,3.1259,3.1253,3.1284,3.1281,3.1399,3.1411,3.1288,3.1289,3.129,0,3.1588,3.1599,3.1553,3.1549,3.1531,3.1526,3.1517,3.1465,3.1458,3.1425,3.1433,3.142,3.1406,3.1394,3.1356,3.134,3.132,3.1362,3.1317,3.133,3.1318,3.1317,3.1317,3.1371,3.1373,3.1374,3.1375,0,3.1698,3.1675,3.1664,3.1645,3.1636,3.1619,3.1599,3.1599,3.1541,3.1536,3.1525,3.1515,3.1494,3.1481,3.1458,3.1437,3.1396,3.139,3.1396,3.1409,3.1424,3.1414,3.1284,3.1387,3.1386,3.1385,3.1385,3.1384,3.1783,3.179,3.1757,3.1747,3.1726,3.1708,3.1709,3.1676,3.1666,3.1645,3.1615,3.1608,3.1578,3.1543,3.1525,3.1518,3.1495,3.1504,3.1506,3.1509,3.1515,3.1426,3.1514,3.1514,3.1514,3.1513,3.1513,0,3.1888,3.1864,3.1855,3.1828,3.1819,3.1781,3.1757,3.1752,3.1746,3.1721,3.1708,3.1696,3.1682,3.1642,3.1624,3.1627,3.1607,3.1624,3.1622,3.1617,3.1538,3.1533,3.1639,3.1639,3.1639,3.1639,3.1639,3.1639,3.1942,3.195,3.1923,3.192,3.1895,3.1888,3.1877,3.1859,3.1839,3.1827,3.1815,3.1789,3.1757,3.1736,3.1722,3.171,3.1705,3.1727,3.171,3.1635,3.1623,3.1612,3.1607,3.1727,3.1727,3.1789,3.179,3.179]}]]